| time (UTC) | temp C | wind direction | speed KPH | gust KPH | rain 1hr cm | rain 24hr cm | rain mn cm | humidity % | barometer mb |
| 20260906150620 | 23 | 72 | 8.0 | 12.9 | 0.00 | 0.00 | 0.00 | 88 | 1014.6 |
| 20260906145619 | 23 | 59 | 6.4 | 14.5 | 0.00 | 0.00 | 0.00 | 88 | 1014.6 |
| 20260906144618 | 23 | 82 | 6.4 | 14.5 | 0.00 | 0.00 | 0.00 | 89 | 1014.2 |
| 20260906143618 | 23 | 86 | 6.4 | 14.5 | 0.00 | 0.00 | 0.00 | 88 | 1013.9 |
| 20260906142617 | 23 | 75 | 6.4 | 16.1 | 0.00 | 0.00 | 0.00 | 88 | 1013.9 |
| 20260906141616 | 23 | 87 | 12.9 | 19.3 | 0.00 | 0.00 | 0.00 | 89 | 1013.9 |
| 20260906140545 | 23 | 77 | 3.2 | 16.1 | 0.00 | 0.00 | 0.00 | 91 | 1013.9 |
| 20260906135512 | 23 | 64 | 8.0 | 16.1 | 0.00 | 0.00 | 0.00 | 92 | 1013.5 |
| 20260906134440 | 22 | 68 | 6.4 | 11.3 | 0.00 | 0.00 | 0.00 | 93 | 1013.5 |
| 20260906133440 | 22 | 70 | 8.0 | 12.9 | 0.00 | 0.00 | 0.00 | 94 | 1013.5 |
| 20260906132438 | 22 | 82 | 6.4 | 12.9 | 0.00 | 0.00 | 0.00 | 94 | 1013.5 |
| 20260906131438 | 22 | 74 | 8.0 | 16.1 | 0.00 | 0.00 | 0.00 | 94 | 1013.5 |
| 20260906130437 | 22 | 76 | 6.4 | 12.9 | 0.00 | 0.00 | 0.00 | 94 | 1013.5 |
| 20260906125437 | 22 | 77 | 8.0 | 12.9 | 0.00 | 0.00 | 0.00 | 94 | 1013.5 |
| 20260906124436 | 22 | 84 | 9.7 | 12.9 | 0.00 | 0.00 | 0.00 | 94 | 1013.5 |
| 20260906123436 | 22 | 75 | 8.0 | 11.3 | 0.00 | 0.00 | 0.00 | 94 | 1013.2 |
| 20260906122434 | 22 | 74 | 4.8 | 9.7 | 0.00 | 0.00 | 0.00 | 94 | 1013.5 |
| 20260906121402 | 22 | 75 | 0.0 | 9.7 | 0.00 | 0.00 | 0.00 | 94 | 1013.2 |
| 20260906120401 | 22 | 78 | 6.4 | 11.3 | 0.00 | 0.00 | 0.00 | 94 | 1013.5 |
| 20260906115401 | 22 | 92 | 0.0 | 6.4 | 0.00 | 0.00 | 0.00 | 94 | 1013.2 |
| 20260906114400 | 22 | 92 | 0.0 | 0.0 | 0.00 | 0.00 | 0.00 | 94 | 1013.2 |
| 20260906113400 | 22 | 92 | 0.0 | 1.6 | 0.00 | 0.00 | 0.00 | 94 | 1012.9 |
| 20260906112359 | 22 | 92 | 3.2 | 8.0 | 0.00 | 0.00 | 0.00 | 94 | 1012.5 |
| 20260906111358 | 22 | 92 | 4.8 | 6.4 | 0.00 | 0.00 | 0.00 | 93 | 1012.5 |
| 20260906110358 | 22 | 92 | 0.0 | 9.7 | 0.00 | 0.00 | 0.00 | 93 | 1012.2 |
| 20260906105357 | 23 | 93 | 6.4 | 12.9 | 0.00 | 0.00 | 0.00 | 93 | 1012.2 |
| 20260906104357 | 23 | 91 | 6.4 | 12.9 | 0.00 | 0.00 | 0.00 | 93 | 1012.5 |
| 20260906103356 | 23 | 86 | 0.0 | 8.0 | 0.00 | 0.00 | 0.00 | 93 | 1012.5 |
| 20260906102355 | 23 | 86 | 0.0 | 0.0 | 0.00 | 0.00 | 0.00 | 92 | 1012.2 |
| 20260906101355 | 23 | 86 | 0.0 | 6.4 | 0.00 | 0.00 | 0.00 | 92 | 1012.5 |
| 20260906100323 | 23 | 86 | 0.0 | 9.7 | 0.00 | 0.00 | 0.00 | 93 | 1012.2 |
| 20260906095322 | 23 | 88 | 0.0 | 9.7 | 0.00 | 0.00 | 0.00 | 92 | 1011.9 |
| 20260906094322 | 23 | 88 | 6.4 | 9.7 | 0.00 | 0.00 | 0.00 | 92 | 1011.9 |
| 20260906093321 | 23 | 88 | 0.0 | 0.0 | 0.00 | 0.00 | 0.00 | 92 | 1011.9 |
| 20260906092320 | 23 | 88 | 0.0 | 9.7 | 0.00 | 0.00 | 0.00 | 92 | 1011.9 |
| 20260906091320 | 23 | 88 | 0.0 | 11.3 | 0.00 | 0.00 | 0.00 | 92 | 1011.5 |
| 20260906090217 | 23 | 88 | 0.0 | 8.0 | 0.00 | 0.00 | 0.00 | 91 | 1011.5 |
| 20260906085216 | 24 | 88 | 4.8 | 11.3 | 0.00 | 0.00 | 0.00 | 91 | 1011.2 |
| 20260906084215 | 24 | 90 | 4.8 | 8.0 | 0.00 | 0.00 | 0.00 | 91 | 1011.2 |
| 20260906083214 | 24 | 90 | 4.8 | 12.9 | 0.00 | 0.00 | 0.00 | 91 | 1011.2 |
| 20260906082214 | 24 | 86 | 4.8 | 9.7 | 0.00 | 0.00 | 0.00 | 90 | 1011.2 |
| 20260906081142 | 24 | 86 | 6.4 | 8.0 | 0.00 | 0.00 | 0.00 | 91 | 1011.2 |
| 20260906080141 | 25 | 86 | 3.2 | 9.7 | 0.00 | 0.00 | 0.00 | 91 | 1011.5 |
| 20260906075141 | 25 | 86 | 0.0 | 0.0 | 0.00 | 0.00 | 0.00 | 90 | 1011.5 |
| 20260906074140 | 25 | 86 | 1.6 | 16.1 | 0.00 | 0.00 | 0.00 | 90 | 1011.5 |
| 20260906073140 | 25 | 72 | 8.0 | 16.1 | 0.00 | 0.00 | 0.00 | 90 | 1011.2 |
| 20260906072139 | 25 | 81 | 6.4 | 14.5 | 0.00 | 0.00 | 0.00 | 90 | 1011.2 |
| 20260906071138 | 25 | 78 | 8.0 | 11.3 | 0.00 | 0.00 | 0.00 | 91 | 1011.2 |
| 20260906070137 | 25 | 92 | 8.0 | 16.1 | 0.00 | 0.00 | 0.00 | 91 | 1011.2 |
| 20260906065137 | 25 | 78 | 6.4 | 14.5 | 0.00 | 0.00 | 0.00 | 91 | 1011.2 |
| 20260906064136 | 25 | 80 | 6.4 | 14.5 | 0.00 | 0.00 | 0.00 | 91 | 1011.2 |
| 20260906063104 | 26 | 66 | 6.4 | 16.1 | 0.00 | 0.00 | 0.00 | 91 | 1011.2 |
| 20260906062104 | 26 | 90 | 11.3 | 19.3 | 0.00 | 0.00 | 0.00 | 91 | 1011.2 |
| 20260906061103 | 26 | 96 | 0.0 | 11.3 | 0.00 | 0.00 | 0.00 | 91 | 1011.2 |
| 20260906055102 | 26 | 92 | 3.2 | 12.9 | 0.00 | 0.00 | 0.00 | 91 | 1011.2 |
| 20260906054101 | 26 | 89 | 8.0 | 17.7 | 0.00 | 0.00 | 0.00 | 91 | 1011.2 |
| 20260906053101 | 26 | 95 | 6.4 | 12.9 | 0.00 | 0.00 | 0.00 | 91 | 1010.8 |
| 20260906052028 | 27 | 98 | 6.4 | 16.1 | 0.00 | 0.00 | 0.00 | 91 | 1010.8 |
| 20260906051028 | 27 | 85 | 6.4 | 12.9 | 0.00 | 0.00 | 0.00 | 90 | 1010.8 |
| 20260906050027 | 27 | 83 | 9.7 | 12.9 | 0.00 | 0.00 | 0.00 | 90 | 1010.8 |
| 20260906045026 | 27 | 87 | 3.2 | 14.5 | 0.00 | 0.00 | 0.00 | 89 | 1010.5 |
| 20260906044026 | 27 | 81 | 6.4 | 12.9 | 0.00 | 0.00 | 0.00 | 89 | 1010.5 |
| 20260906043025 | 27 | 87 | 8.0 | 14.5 | 0.00 | 0.00 | 0.00 | 88 | 1010.5 |
| 20260906042024 | 28 | 59 | 8.0 | 12.9 | 0.00 | 0.00 | 0.00 | 87 | 1010.2 |
| 20260906041024 | 28 | 60 | 6.4 | 11.3 | 0.00 | 0.00 | 0.00 | 86 | 1010.2 |
| 20260906040023 | 28 | 68 | 4.8 | 12.9 | 0.00 | 0.00 | 0.00 | 86 | 1010.2 |
| 20260906035021 | 28 | 71 | 6.4 | 9.7 | 0.00 | 0.00 | 0.00 | 85 | 1009.8 |
| 20260906034021 | 28 | 72 | 0.0 | 6.4 | 0.00 | 0.00 | 0.00 | 85 | 1009.8 |
| 20260906033020 | 28 | 72 | 4.8 | 8.0 | 0.00 | 0.00 | 0.00 | 84 | 1009.8 |
| 20260906031917 | 28 | 72 | 6.4 | 8.0 | 0.00 | 0.00 | 0.00 | 84 | 1009.8 |
| 20260906030916 | 28 | 72 | 4.8 | 9.7 | 0.00 | 0.00 | 0.00 | 84 | 1009.8 |
| 20260906025916 | 29 | 72 | 0.0 | 8.0 | 0.00 | 0.00 | 0.00 | 83 | 1009.8 |
| 20260906024914 | 29 | 72 | 6.4 | 9.7 | 0.00 | 0.00 | 0.00 | 83 | 1009.8 |
| 20260906023913 | 29 | 72 | 3.2 | 6.4 | 0.00 | 0.00 | 0.00 | 82 | 1009.8 |
| 20260906022842 | 29 | 73 | 0.0 | 6.4 | 0.00 | 0.00 | 0.00 | 81 | 1009.8 |
| 20260906021809 | 30 | 73 | 1.6 | 11.3 | 0.00 | 0.00 | 0.00 | 80 | 1009.8 |
| 20260906020808 | 30 | 74 | 4.8 | 9.7 | 0.00 | 0.00 | 0.00 | 79 | 1009.5 |
| 20260906015634 | 30 | 71 | 6.4 | 11.3 | 0.00 | 0.00 | 0.00 | 78 | 1009.5 |
| 20260906014634 | 30 | 61 | 3.2 | 9.7 | 0.00 | 0.00 | 0.00 | 77 | 1009.5 |
| 20260906013602 | 30 | 57 | 4.8 | 8.0 | 0.00 | 0.00 | 0.00 | 76 | 1009.1 |
| 20260906012601 | 31 | 57 | 0.0 | 3.2 | 0.00 | 0.00 | 0.00 | 75 | 1009.1 |
| 20260906011601 | 31 | 57 | 0.0 | 0.0 | 0.00 | 0.00 | 0.00 | 74 | 1008.8 |
| 20260906010600 | 31 | 57 | 1.6 | 8.0 | 0.00 | 0.00 | 0.00 | 73 | 1008.8 |
| 20260906005559 | 31 | 57 | 1.6 | 11.3 | 0.00 | 0.00 | 0.00 | 72 | 1008.8 |
| 20260906004559 | 32 | 60 | 6.4 | 9.7 | 0.00 | 0.00 | 0.00 | 70 | 1008.8 |
| 20260906003558 | 32 | 61 | 1.6 | 1.6 | 0.00 | 0.00 | 0.00 | 69 | 1008.8 |
| 20260906002526 | 32 | 61 | 0.0 | 4.8 | 0.00 | 0.00 | 0.00 | 69 | 1008.8 |
| 20260906001525 | 32 | 61 | 6.4 | 8.0 | 0.00 | 0.00 | 0.00 | 68 | 1008.8 |
| 20260906000525 | 32 | 61 | 3.2 | 8.0 | 0.00 | 0.00 | 0.00 | 67 | 1008.8 |
| 20260905235524 | 33 | 61 | 1.6 | 12.9 | 0.00 | 0.00 | 0.00 | 66 | 1008.8 |
| 20260905234523 | 33 | 63 | 4.8 | 9.7 | 0.00 | 0.00 | 0.00 | 66 | 1008.8 |
| 20260905233451 | 33 | 63 | 1.6 | 9.7 | 0.00 | 0.00 | 0.00 | 66 | 1008.8 |
| 20260905232451 | 33 | 63 | 0.0 | 8.0 | 0.00 | 0.00 | 0.00 | 65 | 1008.5 |
| 20260905231450 | 33 | 61 | 4.8 | 11.3 | 0.00 | 0.00 | 0.00 | 64 | 1008.5 |
| 20260905230450 | 33 | 52 | 8.0 | 12.9 | 0.00 | 0.00 | 0.00 | 63 | 1008.5 |
| 20260905225449 | 34 | 48 | 8.0 | 16.1 | 0.00 | 0.00 | 0.00 | 61 | 1008.5 |
| 20260905224448 | 35 | 51 | 9.7 | 19.3 | 0.00 | 0.00 | 0.00 | 59 | 1008.5 |
| 20260905223416 | 36 | 28 | 6.4 | 12.9 | 0.00 | 0.00 | 0.00 | 56 | 1008.1 |
| 20260905222416 | 36 | 54 | 3.2 | 9.7 | 0.00 | 0.00 | 0.00 | 53 | 1008.1 |
| 20260905221415 | 36 | 54 | 6.4 | 11.3 | 0.00 | 0.00 | 0.00 | 54 | 1008.1 |
| 20260905220415 | 36 | 62 | 8.0 | 16.1 | 0.00 | 0.00 | 0.00 | 53 | 1008.1 |
| 20260905215414 | 36 | 29 | 4.8 | 14.5 | 0.00 | 0.00 | 0.00 | 54 | 1008.1 |
| 20260905214412 | 36 | 64 | 4.8 | 16.1 | 0.00 | 0.00 | 0.00 | 54 | 1008.1 |
| 20260905213412 | 36 | 34 | 4.8 | 12.9 | 0.00 | 0.00 | 0.00 | 53 | 1008.5 |
| 20260905212340 | 35 | 68 | 4.8 | 8.0 | 0.00 | 0.00 | 0.00 | 54 | 1008.5 |
| 20260905211308 | 35 | 69 | 3.2 | 8.0 | 0.00 | 0.00 | 0.00 | 56 | 1008.5 |
| 20260905210307 | 35 | 69 | 4.8 | 9.7 | 0.00 | 0.00 | 0.00 | 56 | 1008.5 |
| 20260905205307 | 36 | 69 | 3.2 | 14.5 | 0.00 | 0.00 | 0.00 | 55 | 1008.8 |
| 20260905204234 | 37 | 85 | 9.7 | 16.1 | 0.00 | 0.00 | 0.00 | 52 | 1008.8 |
| 20260905203234 | 37 | 350 | 3.2 | 14.5 | 0.00 | 0.00 | 0.00 | 49 | 1008.8 |
| 20260905202233 | 37 | 290 | 4.8 | 11.3 | 0.00 | 0.00 | 0.00 | 49 | 1009.1 |
| 20260905201232 | 37 | 277 | 6.4 | 14.5 | 0.00 | 0.00 | 0.00 | 49 | 1009.1 |
| 20260905200200 | 37 | 278 | 6.4 | 14.5 | 0.00 | 0.00 | 0.00 | 51 | 1009.1 |
| 20260905195200 | 37 | 290 | 6.4 | 14.5 | 0.00 | 0.00 | 0.00 | 49 | 1009.1 |
| 20260905194159 | 37 | 278 | 8.0 | 14.5 | 0.00 | 0.00 | 0.00 | 50 | 1009.1 |
| 20260905193159 | 37 | 330 | 4.8 | 11.3 | 0.00 | 0.00 | 0.00 | 52 | 1009.5 |
| 20260905192127 | 37 | 315 | 3.2 | 9.7 | 0.00 | 0.00 | 0.00 | 52 | 1009.5 |
| 20260905191126 | 37 | 293 | 4.8 | 9.7 | 0.00 | 0.00 | 0.00 | 51 | 1009.5 |
| 20260905190126 | 37 | 283 | 4.8 | 12.9 | 0.00 | 0.00 | 0.00 | 52 | 1009.5 |
| 20260905185125 | 37 | 260 | 11.3 | 16.1 | 0.00 | 0.00 | 0.00 | 50 | 1009.5 |
| 20260905184125 | 37 | 261 | 0.0 | 9.7 | 0.00 | 0.00 | 0.00 | 50 | 1009.5 |
| 20260905183124 | 37 | 260 | 3.2 | 9.7 | 0.00 | 0.00 | 0.00 | 49 | 1009.5 |
| 20260905182123 | 37 | 258 | 6.4 | 11.3 | 0.00 | 0.00 | 0.00 | 48 | 1009.8 |
| 20260905181123 | 37 | 256 | 3.2 | 8.0 | 0.00 | 0.00 | 0.00 | 48 | 1009.8 |
| 20260905180122 | 37 | 256 | 0.0 | 0.0 | 0.00 | 0.00 | 0.00 | 52 | 1009.8 |
| 20260905175122 | 37 | 256 | 3.2 | 11.3 | 0.00 | 0.00 | 0.00 | 49 | 1009.8 |
| 20260905174121 | 37 | 255 | 9.7 | 14.5 | 0.00 | 0.00 | 0.00 | 48 | 1009.8 |
| 20260905173120 | 37 | 252 | 3.2 | 9.7 | 0.00 | 0.00 | 0.00 | 49 | 1010.2 |
| 20260905172119 | 37 | 252 | 0.0 | 9.7 | 0.00 | 0.00 | 0.00 | 52 | 1010.2 |
| 20260905171047 | 36 | 252 | 1.6 | 8.0 | 0.00 | 0.00 | 0.00 | 53 | 1010.5 |
| 20260905170047 | 36 | 252 | 3.2 | 6.4 | 0.00 | 0.00 | 0.00 | 56 | 1010.5 |
| 20260905165046 | 36 | 252 | 3.2 | 8.0 | 0.00 | 0.00 | 0.00 | 55 | 1010.5 |
| 20260905164014 | 35 | 252 | 3.2 | 8.0 | 0.00 | 0.00 | 0.00 | 58 | 1010.5 |
| 20260905163014 | 35 | 252 | 4.8 | 8.0 | 0.00 | 0.00 | 0.00 | 58 | 1010.5 |
| 20260905162013 | 35 | 252 | 3.2 | 8.0 | 0.00 | 0.00 | 0.00 | 59 | 1010.2 |
| 20260905161012 | 35 | 252 | 0.0 | 6.4 | 0.00 | 0.00 | 0.00 | 61 | 1010.2 |
| 20260905160011 | 34 | 252 | 4.8 | 9.7 | 0.00 | 0.00 | 0.00 | 62 | 1010.2 |
| 20260905155011 | 34 | 252 | 0.0 | 3.2 | 0.00 | 0.00 | 0.00 | 63 | 1010.2 |
| 20260905154010 | 33 | 252 | 1.6 | 3.2 | 0.00 | 0.00 | 0.00 | 63 | 1010.5 |
| 20260905153009 | 33 | 252 | 4.8 | 6.4 | 0.00 | 0.00 | 0.00 | 64 | 1010.2 |
| 20260905151907 | 32 | 252 | 0.0 | 0.0 | 0.00 | 0.00 | 0.00 | 66 | 1010.5 |
| 20260905150906 | 32 | 252 | 0.0 | 6.4 | 0.00 | 0.00 | 0.00 | 68 | 1010.5 |